• In Hungary
  • List of Countries
  • For 7 days
  • Water Temperature
  • Satellite Maps
  • Weather Map
  • News
  • Weather Widgets
  • user-avatar
    Login

    Hourly Weather Madaba

    Today, 17 January, Wednesday

    Time Temperature Precipitation Wind Pressure Humidity
    00:00 +10°C° 0 mm 1 mps 698 mmHg 76%
    01:00 +10°C° 0 mm 1 mps 698 mmHg 77%
    02:00 +10°C° 0 mm 1 mps 697 mmHg 78%
    03:00 +9°C° 0 mm 1 mps 697 mmHg 80%
    04:00 +9°C° 0 mm 1 mps 697 mmHg 83%
    05:00 +9°C° 0 mm 1 mps 697 mmHg 85%
    06:00 +9°C° 0 mm 1 mps 697 mmHg 82%
    07:00 +8°C° 0 mm 2 mps 697 mmHg 80%
    08:00 +9°C° 0 mm 2 mps 697 mmHg 78%
    09:00 +9°C° 0 mm 3 mps 697 mmHg 70%
    10:00 +10°C° 0 mm 3 mps 697 mmHg 63%
    11:00 +11°C° 0 mm 4 mps 697 mmHg 55%
    12:00 +12°C° 0 mm 4 mps 697 mmHg 54%
    13:00 +12°C° 0 mm 5 mps 696 mmHg 54%
    14:00 +12°C° 0 mm 5 mps 696 mmHg 53%
    15:00 +12°C° 0 mm 5 mps 696 mmHg 58%
    16:00 +11°C° 0 mm 4 mps 696 mmHg 62%
    17:00 +10°C° 0 mm 4 mps 696 mmHg 67%
    18:00 +10°C° 0 mm 3 mps 696 mmHg 70%
    19:00 +10°C° 0 mm 3 mps 696 mmHg 73%
    20:00 +9°C° 0 mm 3 mps 696 mmHg 76%
    21:00 +9°C° 0 mm 3 mps 696 mmHg 77%
    22:00 +9°C° 0 mm 3 mps 696 mmHg 78%
    23:00 +8°C° 0 mm 2 mps 696 mmHg 79%

    Tomorrow, 18 January, Thursday

    Time Temperature Precipitation Wind Pressure Humidity
    00:00 +8°C° 0 mm 3 mps 696 mmHg 80%
    01:00 +8°C° 0 mm 3 mps 696 mmHg 80%
    02:00 +8°C° 0 mm 3 mps 696 mmHg 80%
    03:00 +8°C° 0 mm 3 mps 696 mmHg 80%
    04:00 +8°C° 0 mm 3 mps 695 mmHg 80%
    05:00 +7°C° 0 mm 3 mps 695 mmHg 80%
    06:00 +8°C° 0 mm 3 mps 695 mmHg 77%
    07:00 +8°C° 0 mm 3 mps 695 mmHg 74%
    08:00 +8°C° 0 mm 3 mps 695 mmHg 71%
    09:00 +10°C° 0 mm 4 mps 695 mmHg 65%
    10:00 +11°C° 0 mm 4 mps 695 mmHg 58%
    11:00 +12°C° 0 mm 5 mps 695 mmHg 52%
    12:00 +13°C° 0 mm 6 mps 694 mmHg 50%
    13:00 +12°C° 0 mm 7 mps 694 mmHg 48%
    14:00 +14°C° 0 mm 7 mps 693 mmHg 47%
    15:00 +12°C° 0 mm 7 mps 693 mmHg 48%
    16:00 +12°C° 0 mm 7 mps 692 mmHg 50%
    17:00 +11°C° 0 mm 7 mps 692 mmHg 51%
    18:00 +11°C° 0 mm 8 mps 692 mmHg 51%
    19:00 +10°C° 0 mm 8 mps 691 mmHg 50%
    20:00 +10°C° 0 mm 9 mps 691 mmHg 50%
    21:00 +9°C° 0.5 mm 11 mps 691 mmHg 55%
    22:00 +8°C° 0.5 mm 12 mps 691 mmHg 60%
    23:00 +8°C° 0.5 mm 13 mps 691 mmHg 66%

    Day after tomorrow, 19 January, Friday

    Time Temperature Precipitation Wind Pressure Humidity
    00:00 +6°C° 1.6 mm 14 mps 691 mmHg 69%
    01:00 +5°C° 1.6 mm 14 mps 690 mmHg 73%
    02:00 +4°C° 1.6 mm 15 mps 690 mmHg 76%
    03:00 +2°C° 0.6 mm 15 mps 690 mmHg 72%
    04:00 +2°C° 0.6 mm 15 mps 691 mmHg 68%
    05:00 +1°C° 0.6 mm 15 mps 691 mmHg 64%
    06:00 +1°C° 0.3 mm 14 mps 691 mmHg 64%
    07:00 +1°C° 0.3 mm 13 mps 692 mmHg 65%
    08:00 +1°C° 0.3 mm 13 mps 693 mmHg 65%
    09:00 +3°C° 0.2 mm 12 mps 693 mmHg 63%
    10:00 +3°C° 0.2 mm 12 mps 694 mmHg 61%
    11:00 +4°C° 0.2 mm 12 mps 695 mmHg 59%
    12:00 +4°C° 0.1 mm 12 mps 695 mmHg 58%
    13:00 +5°C° 0.1 mm 12 mps 695 mmHg 56%
    14:00 +5°C° 0.1 mm 12 mps 695 mmHg 55%
    15:00 +6°C° 0 mm 11 mps 695 mmHg 57%
    16:00 +5°C° 0 mm 10 mps 696 mmHg 60%
    17:00 +5°C° 0 mm 9 mps 696 mmHg 62%
    18:00 +5°C° 0 mm 8 mps 697 mmHg 65%
    19:00 +4°C° 0 mm 7 mps 697 mmHg 67%
    20:00 +5°C° 0 mm 5 mps 698 mmHg 70%
    21:00 +5°C° 0 mm 5 mps 698 mmHg 71%
    22:00 +5°C° 0 mm 5 mps 699 mmHg 72%
    23:00 +4°C° 0 mm 4 mps 699 mmHg 73%

    20 January, Saturday

    Time Temperature Precipitation Wind Pressure Humidity
    00:00 +4°C° 0 mm 4 mps 699 mmHg 74%
    01:00 +4°C° 0 mm 4 mps 699 mmHg 75%
    02:00 +4°C° 0 mm 4 mps 699 mmHg 76%
    03:00 +4°C° 0 mm 3 mps 699 mmHg 77%
    04:00 +4°C° 0 mm 3 mps 700 mmHg 78%
    05:00 +3°C° 0 mm 3 mps 700 mmHg 79%
    06:00 +4°C° 0 mm 3 mps 700 mmHg 77%
    07:00 +5°C° 0 mm 2 mps 701 mmHg 75%
    08:00 +6°C° 0 mm 2 mps 701 mmHg 73%
    09:00 +7°C° 0 mm 2 mps 702 mmHg 67%
    10:00 +9°C° 0 mm 2 mps 702 mmHg 61%
    11:00 +10°C° 0 mm 2 mps 702 mmHg 55%
    12:00 +12°C° 0 mm 1 mps 702 mmHg 52%
    13:00 +12°C° 0 mm 1 mps 701 mmHg 49%
    14:00 +13°C° 0 mm 1 mps 701 mmHg 46%
    15:00 +13°C° 0 mm 1 mps 701 mmHg 49%
    16:00 +12°C° 0 mm 1 mps 701 mmHg 53%
    17:00 +11°C° 0 mm 0 mps 701 mmHg 56%
    18:00 +11°C° 0 mm 1 mps 701 mmHg 56%
    19:00 +11°C° 0 mm 1 mps 701 mmHg 56%
    20:00 +10°C° 0 mm 2 mps 702 mmHg 56%
    21:00 +9°C° 0 mm 2 mps 701 mmHg 56%
    22:00 +9°C° 0 mm 2 mps 701 mmHg 55%
    23:00 +8°C° 0 mm 3 mps 701 mmHg 54%

    21 January, Sunday

    Time Temperature Precipitation Wind Pressure Humidity
    00:00 +8°C° 0 mm 3 mps 701 mmHg 53%
    01:00 +8°C° 0 mm 3 mps 700 mmHg 51%
    02:00 +8°C° 0 mm 3 mps 700 mmHg 49%
    03:00 +7°C° 0 mm 3 mps 700 mmHg 48%
    04:00 +7°C° 0 mm 3 mps 700 mmHg 47%
    05:00 +6°C° 0 mm 4 mps 699 mmHg 46%
    06:00 +6°C° 0 mm 4 mps 699 mmHg 45%
    07:00 +6°C° 0 mm 4 mps 699 mmHg 43%
    08:00 +7°C° 0 mm 4 mps 699 mmHg 42%
    09:00 +10°C° 0 mm 4 mps 699 mmHg 37%
    10:00 +10°C° 0 mm 5 mps 699 mmHg 31%
    11:00 +13°C° 0 mm 5 mps 699 mmHg 25%
    12:00 +14°C° 0 mm 5 mps 698 mmHg 23%
    13:00 +15°C° 0 mm 5 mps 698 mmHg 20%
    14:00 +17°C° 0 mm 4 mps 697 mmHg 18%
    15:00 +15°C° 0 mm 4 mps 697 mmHg 20%
    16:00 +16°C° 0 mm 3 mps 696 mmHg 22%
    17:00 +14°C° 0 mm 3 mps 696 mmHg 24%
    18:00 +13°C° 0 mm 3 mps 696 mmHg 24%
    19:00 +12°C° 0 mm 3 mps 696 mmHg 24%
    20:00 +12°C° 0 mm 3 mps 696 mmHg 25%
    21:00 +11°C° 0 mm 3 mps 695 mmHg 25%
    22:00 +11°C° 0 mm 3 mps 695 mmHg 25%
    23:00 +10°C° 0 mm 3 mps 694 mmHg 26%

    22 January, Monday

    Time Temperature Precipitation Wind Pressure Humidity
    00:00 +10°C° 0 mm 2 mps 694 mmHg 26%
    01:00 +9°C° 0 mm 2 mps 694 mmHg 26%
    02:00 +9°C° 0 mm 2 mps 693 mmHg 26%
    03:00 +9°C° 0 mm 2 mps 693 mmHg 26%
    04:00 +8°C° 0 mm 2 mps 693 mmHg 26%
    05:00 +8°C° 0 mm 2 mps 693 mmHg 26%
    06:00 +9°C° 0 mm 2 mps 693 mmHg 26%
    07:00 +10°C° 0 mm 2 mps 693 mmHg 26%
    08:00 +10°C° 0 mm 2 mps 694 mmHg 26%
    09:00 +12°C° 0 mm 3 mps 694 mmHg 25%
    10:00 +14°C° 0 mm 3 mps 694 mmHg 24%
    11:00 +17°C° 0 mm 4 mps 694 mmHg 23%
    12:00 +16°C° 0 mm 5 mps 693 mmHg 23%
    13:00 +16°C° 0 mm 5 mps 693 mmHg 23%
    14:00 +17°C° 0 mm 5 mps 692 mmHg 23%
    15:00 +17°C° 0 mm 4 mps 692 mmHg 27%
    16:00 +16°C° 0 mm 3 mps 692 mmHg 30%
    17:00 +15°C° 0 mm 2 mps 691 mmHg 33%
    18:00 +14°C° 0 mm 2 mps 692 mmHg 35%
    19:00 +13°C° 0 mm 2 mps 692 mmHg 37%
    20:00 +13°C° 0 mm 2 mps 692 mmHg 38%
    21:00 +11°C° 0 mm 3 mps 692 mmHg 39%
    22:00 +11°C° 0 mm 4 mps 692 mmHg 40%
    23:00 +11°C° 0 mm 4 mps 691 mmHg 40%
    Show more